Regional Weather Roundup
Issued by NWS Charleston, SC

Current Version | Previous Version | Graphics & Text | Print | Product List | Glossary On
Versions: 1 2 3 4 5 6 7 8 9 10 11 12 13 14 15 16 17 18 19 20 21 22 23 24 25 26 27 28 29 30 31 32 33 34 35 36 37 38 39 40 41 42 43 44 45 46 47 48 49 50
000 ASUS42 KCHS 311312 RWRCHS REGIONAL WEATHER ROUNDUP NATIONAL WEATHER SERVICE CHARLESTON SC 900 AM EDT MON AUG 31 2015 NOTE: "FAIR" INDICATES FEW OR NO CLOUDS BELOW 12,000 FEET WITH NO SIGNIFICANT WEATHER AND/OR OBSTRUCTIONS TO VISIBILITY. NOT ALL STATIONS ARE QUALITY CONTROLLED BY THE NATIONAL WEATHER SERVICE. USE DATA WITH CAUTION...ESPECIALLY DEWPOINT OBSERVATIONS. SCZ027-030-031-034>040-042>050-311400- ...SOUTHEAST SOUTH CAROLINA... CITY SKY/WX TMP DP RH WIND PRES REMARKS N CHARLESTON LGT RAIN 75 73 93 CALM 30.05F FOG WATERFRONT PRK N/A 75 74 97 N7 30.01R MOUNT PLEASANT HVY RAIN 73 73 100 N7 30.05F VSB 1/2 JOHNS ISLAND DRIZZLE 75 75 100 N6 30.04S PINOPOLIS N/A 77 73 88 CALM 29.99 MONCKS CORNER HVY RAIN 75 72 88 N3 30.05F SUMMERVILLE CLOUDY 73 73 100 N3 30.07F BEAUFORT MCAS CLOUDY 75 73 93 N6 30.06R BEAUFORT ARPT CLOUDY 75 75 100 CALM 30.05R HILTON HEAD IS CLOUDY 75 73 94 CALM 30.06R WALTERBORO CLOUDY 75 73 94 NE7 30.07R ALLENDALE CLOUDY 73 72 94 CALM 30.07R FOG ...SOUTHERN MIDLANDS AND PEE DEE... CITY SKY/WX TMP DP RH WIND PRES REMARKS GEORGETOWN NOT AVBL KINGSTREE NOT AVBL ORANGEBURG CLOUDY 71 67 87 NE7 30.09R BARNWELL CLOUDY 73 72 94 NE8 30.09R AIKEN CLOUDY 55 55 100 N7 30.13R MANNING CLOUDY 70 70 100 N5 30.09R COLUMBIA CLOUDY 70 67 90 N6 30.10R FOG SUMTER CLOUDY 70 68 93 N9 30.08R FLORENCE CLOUDY 72 70 93 NE7 30.10R MYRTLE BEACH LGT RAIN 75 70 83 CALM 30.10R FOG N MYRTLE BEACH RAIN 74 72 93 VRB3 30.09R FOG $$ GAZ063-065-086>088-099>101-113>116-118-119-134>141-150-311400- ...SOUTHEAST GEORGIA... CITY SKY/WX TMP DP RH WIND PRES REMARKS SAVANNAH ARPT CLOUDY 75 73 93 NW6 30.06R HUNTER AAF PTSUNNY 77 77 100 VRB2 30.03R FORT STEWART CLOUDY 75 73 95 CALM 30.04R STATESBORO CLOUDY 72 32 22 NE5 30.07R SYLVANIA CLOUDY 73 73 100 NE7 30.09R FOG CLAXTON NOT AVBL ...CSRA...CENTRAL AND FAR SOUTHEAST GEORGIA... CITY SKY/WX TMP DP RH WIND PRES REMARKS THOMSON CLOUDY 71 71 100 NW3 30.15R VSB 3/4 AUGUSTA-BUSH CLOUDY 71 70 96 N7 30.08R FOG AUGUSTA-DANIEL CLOUDY 73 69 87 N6 30.10R SWAINSBORO CLOUDY N/A N/A N/A N3 30.10R FOG VIDALIA CLOUDY 72 72 100 N6 30.08R EASTMAN CLOUDY 73 73 100 NE6 30.11R HAZLEHURST CLOUDY 75 75 100 N8 30.07R ALMA CLOUDY 76 74 93 N6 30.06R WAYCROSS CLOUDY 77 77 100 N5 30.06R FOG JESUP CLOUDY 77 77 100 CALM 30.06R BAXLEY CLOUDY 77 73 88 N3 30.07R BRUNSWICK CLOUDY 73 72 94 CALM 30.06R SAINT SIMONS CLOUDY 77 77 100 CALM 30.05R $$ SCZ027-028-034-036>038-045-046-048>050-GAZ119-141-311400- ...LAKE AND SUPPLEMENTAL COASTAL OBSERVATIONS... STATION/POSITION TIME TEMP WIND PRES WAVE SWELL AIR SEA DIR/SP/G HT/PER HT/PER/DIR (UTC) (F) (DEG/KT/KT) (MB) (FT/S) (FT/S/D) UPR LAKE MARION NOT AVBL WINYAH BAY 1145 77 160/ 8 1016.0 LAKE MURRAY 1200 68 350/ 2/ 5 1018.6R ACE BASIN NERRS NOT AVBL FORT PULASKI NOT AVBL SAPELO ISLAND 1200 76 310/ 4 1016.0S $$ ANZ835-935-AMZ111-154-330-350-352-354-370-450-454-472-311400- ...C-MAN AND BUOY OBSERVATIONS... STATION/POSITION TIME TEMP WIND PRES WAVE SWELL AIR SEA DIR/SP/G HT/PER HT/PER/DIR (UTC) (F) (DEG/KT/KT) (MB) (FT/S) (FT/S/D) BUOY 41004 1250 82 84 170/ 17/ 21 1016.6R 6/10 3/10 BUOY 41008 1250 80 84 280/ 6/ 8 1017.0R 5/ 7 5/130/ 7 FOLLY BEACH CMAN 1200 77 190/ 9/ 11 1017.1R CAPERS NEARSHORE 1208 78 210/ 19/ 25 1017.8R FRIPP NEARSHORE 1200 79 150/ 8/ 10 1016.2R STATION/POSITION TIME TEMP WIND PRES WAVE SWELL AIR SEA DIR/SP/G HT/PER HT/PER/DIR (UTC) (F) (DEG/KT/KT) (MB) (FT/S) (FT/S/D) 5E ST. MARYS GA 1221 85 N/A 4/ 8 FRYING PAN BUOY 1250 83 82 190/ 8/ 10 1018.8R 4/ 9 3/110/ 9 BUOY 41025 1250 82 84 140/ 4/ 6 1020.0 3/ 9 3/120/ 9 CAPE LOOKOUT NC 1200 80 120/ 12/ 13 1018.9S BUOY 41002 1250 82 84 140/ 10/ 12 1019.6S 3/ 9 3/130/ 9 BUOY 41010 1220 83 85 140/ 12/ 14 1017.8R ST AUGUSTINE FL 1300 78 83 240/ 2/ 2 1018.1R $$

USA.gov is the U.S. government's official web portal to all federal, state and local government web resources and services.